This is the latest recevied weather packets stored in our database for station/object KC4BAM. If no packets are shown the sender has not sent any weather packets the latest 10 day(s).
| Time | Temp. | Humidity | Pressure | Rain* | Wind** | Luminosity | Snow |
|---|---|---|---|---|---|---|---|
| 1777395168 | 23.33° C | 79% | 1006.6 hPa | 0 mm | - | 152 W/m² | - |
| 1777394865 | 23.33° C | 79% | 1006.8 hPa | 0 mm | - | 219 W/m² | - |
| 1777394560 | 22.78° C | 80% | 1006.9 hPa | 0 mm | - | 227 W/m² | - |
| 1777394258 | 22.78° C | 79% | 1006.8 hPa | 0 mm | - | 202 W/m² | - |
| 1777393953 | 22.78° C | 80% | 1006.8 hPa | 0 mm | - | 209 W/m² | - |
| 1777393653 | 22.78° C | 81% | 1006.8 hPa | 0 mm | - | 191 W/m² | - |
| 1777393348 | 22.78° C | 81% | 1007 hPa | 0 mm | - | 270 W/m² | - |
| 1777393045 | 22.78° C | 81% | 1007 hPa | 0 mm | - | 299 W/m² | - |
| 1777392741 | 22.22° C | 81% | 1007.1 hPa | 0 mm | - | 376 W/m² | - |
| 1777392437 | 21.67° C | 84% | 1007.1 hPa | 0 mm | - | 514 W/m² | - |
| 1777392133 | 21.67° C | 85% | 1007.2 hPa | 0 mm | - | 238 W/m² | - |
| 1777391828 | 21.11° C | 85% | 1007.1 hPa | 0 mm | - | 92 W/m² | - |
| 1777391524 | 21.11° C | 85% | 1007.1 hPa | 0 mm | - | 77 W/m² | - |
| 1777391220 | 21.11° C | 84% | 1007.2 hPa | 0 mm | - | 58 W/m² | - |
| 1777390916 | 21.67° C | 84% | 1007.3 hPa | 0 mm | - | 64 W/m² | - |
| 1777390613 | 21.67° C | 83% | 1007.2 hPa | 0 mm | - | 73 W/m² | - |
| 1777390310 | 21.67° C | 83% | 1007.1 hPa | 0 mm | - | 203 W/m² | - |
| 1777390006 | 21.67° C | 83% | 1007 hPa | 0 mm | - | 152 W/m² | - |
| 1777389703 | 21.67° C | 83% | 1007.2 hPa | 0 mm | - | 136 W/m² | - |
| 1777389399 | 21.67° C | 84% | 1007.3 hPa | 0 mm | - | 116 W/m² | - |
| 1777389098 | 21.67° C | 83% | 1007 hPa | 0 mm | - | 178 W/m² | - |
| 1777388795 | 21.67° C | 83% | 1007.1 hPa | 0 mm | - | 167 W/m² | - |
| 1777388492 | 21.67° C | 84% | 1006.9 hPa | 0 mm | - | 199 W/m² | - |
| 1777388192 | 21.67° C | 84% | 1007 hPa | 0 mm | - | 221 W/m² | - |
| 1777387888 | 21.67° C | 84% | 1007.1 hPa | 0 mm | - | 212 W/m² | - |
* Rain latest hour (hover to see other rain measurements)
** Current wind speed in m/s (hover to see current wind gust speed)